Weather in Mar'yanovka

Russia / Primorsky Krai     44°47′37″N   133°43′57″E
temp.,
°C
wind,
m/s
gust,
m/s
humid.,
%
clouds,
%
prec.,
mm/h
press.,
hPa
HPBL,
m
10 may, mon
mon1001:00+7w2499100 0.4 1004183
04:00+7w1299100 1.0 1005152
07:00+7w2499100 1.0 1007317
10:00+7w2498100 1.2 1009433
13:00+7w2394100 0.1 1010524
16:00+8w2394100 0.4 1011412
19:00+7wsw2397100 0.1 1012242
22:00+6wsw1399100 0.4 1013210
11 may, tue
tue1101:00+6w1399100 0.4 1014189
04:00+6w1399100 1.6 1014195
07:00+6nw1199100 0.5 1016106
10:00+9wnw128081 0.7 1017724
13:00+11wnw1266100 0.3 10171083
16:00+12wnw116240 0.6 10171068
19:00+12se006710 0.1 101725
22:00+7ese11826 0.1 101810
12 may, wed
wed1201:00+6se2287100 0.0 101927
04:00+5sse2292100 0.0 101840
07:00+6se2489100 0.0 1018132
10:00+12se3663100 0.0 1016613
13:00+15s41152100 0.0 10141497
16:00+16ssw41349100 0.0 10132375
19:00+9ssw61487100 2.1 10151229
22:00+8s41190100 6.1 1015943
13 may, thu
thu1301:00+6s37931 0.0 1015258
04:00+5sse26950 0.0 1014154
07:00+6s26932 0.0 1015208
10:00+13ssw35690 0.0 1014603
13:00+19wsw35455 0.0 10121530
16:00+21w48401 0.0 10112362
19:00+18wsw1162100 0.0 101111
22:00+12sse2280100 0.0 101213
14 may, fri
fri1401:00+11sse2278100 0.0 101325
04:00+10sse2271100 0.0 101327
07:00+11sse2371100 0.0 101370
10:00+14ssw2554100 0.0 1012430
13:00+12s3782100 0.6 1012417
16:00+12sse2693100 2.8 1010526
19:00+10ese2597100 4.6 1008285
22:00+10se2497100 4.9 1008120